Gaosu Jiguang Zuanzhi 4

operational
NORAD ID: 62293 Int'l Des: 2024-238 Owner: CASC Country: CN
LEOCIRCULAR

About Gaosu Jiguang Zuanzhi 4

Description loading...

Live Position

Loading 3D Globe...

Upcoming Passes

Altitude History

Altitude vs Time

uPlot chart will show altitude changes over time

Two-Line Element Set

1 62293U 24238D 25312.83016118 .00000070 00000-0 19642-3 0 9994
2 62293 59.9131 218.0038 0017949 146.5775 213.6370 13.75163133 45609
Epoch: Nov 8, 2025 • Age: 57 hours

Current Status

Altitude 1007.3 km
Velocity 7.35 km/s
Sub-Earth Point -58.70°S, 23.72°W
Launch Date Dec 12, 2024
Age 0.9 years
Type other

Technical Details

Classification Payload
Mass 150.00 kg
Dry Mass 150.00 kg
Total Mass 150.00 kg
Length 0.30 m
Diameter 0.20 m
Span 3.00 m
Shape Box + 2 pan
Manufacturer HITSAT
Bus Type HarbFlat
Phase Status In Orbit
Owner/State CASC/CN

Large Constellations

Loading constellations...